Location: Blackfoot
(53.5367°N, 112.7800°W)
Time: 03:04:20
(UTC-06:00)

Amateur Radio Satellites - All Passes

Search period start: 30 July 2014 02:34
Search period end: 31 July 2014 02:34
Location: Blackfoot, 53.5367°N, 112.7800°W

Satellite Date Start Highest point End Downlink Frequencies (MHz)
Time Altitude Azimuth
ITAMSAT 1 30 Jul 02:48:47 02:52:48 22° 90° (E) 02:56:48 435.822 SSB
MaSat-1 30 Jul 03:02:09 03:04:48 14° 6° (N) 03:07:30 437.345 MHz
Uribyol 2 30 Jul 03:07:36 03:12:14 32° 95° (E) 03:16:49 436.500 FM
AO-27 30 Jul 03:07:58 03:12:35 31° 94° (E) 03:17:10 436.795 MHz FM
TMSAT-1 30 Jul 03:12:59 03:15:27 13° 83° (E) 03:17:55 436.925 FM
Sapphire 30 Jul 03:23:36 03:28:48 46° 321° (NW) 03:34:03 437.095 MHz 1200 baud AX-25 AFSK
JAS-1B 30 Jul 03:33:56 03:43:03 45° 92° (E) 03:51:00 435.800 - 435.900 CW/SSB
Oscar 19 30 Jul 03:35:40 03:40:52 88° 287° (WNW) 03:46:04 437.125 CW, 437.150 USB
Gurwin Techsat 1B 30 Jul 03:36:48 03:41:15 26° 92° (E) 03:45:39 435.225 FM
AO-Echo 30 Jul 03:43:08 03:48:14 60° 101° (ESE) 03:53:08 ?
PCSat 30 Jul 03:57:39 04:02:31 32° 330° (NNW) 04:07:25 145.825 MHz
ISS 30 Jul 04:03:32 04:06:51 57° 190° (S) 04:10:10 145.800 FM
Oscar 16 30 Jul 04:04:25 04:09:27 54° 293° (WNW) 04:14:28 437.025 USB, Beacon 2401.1428
OPAL 30 Jul 04:10:11 04:15:08 77° 69° (ENE) 04:20:08 ?
ITAMSAT 1 30 Jul 04:27:39 04:32:50 70° 290° (WNW) 04:37:58 435.822 SSB
MaSat-1 30 Jul 04:39:47 04:43:58 23° 30° (NNE) 04:48:11 437.345 MHz
Uribyol 2 30 Jul 04:46:57 04:51:55 48° 295° (WNW) 04:56:52 436.500 FM
AO-27 30 Jul 04:47:19 04:52:20 50° 294° (WNW) 04:57:19 436.795 MHz FM
TMSAT-1 30 Jul 04:51:03 04:56:23 71° 104° (ESE) 05:01:39 436.925 FM
STRAND 1 30 Jul 05:00:19 05:02:15 12° 45° (NE) 05:04:12 ?
Sapphire 30 Jul 05:09:22 05:13:33 22° 346° (NNW) 05:17:44 437.095 MHz 1200 baud AX-25 AFSK
Oscar 19 30 Jul 05:15:58 05:19:35 20° 307° (NW) 05:23:12 437.125 CW, 437.150 USB
Gurwin Techsat 1B 30 Jul 05:16:22 05:21:37 61° 292° (WNW) 05:26:51 435.225 FM
AO-Echo 30 Jul 05:22:25 05:26:41 27° 302° (WNW) 05:30:50 ?
JAS-1B 30 Jul 05:24:27 05:33:59 64° 297° (WNW) 05:42:19 435.800 - 435.900 CW/SSB
AO-7 30 Jul 05:29:05 05:36:56 42° 98° (E) 05:44:42 29.400 - 29.500 MHz
KITSAT 1 30 Jul 05:40:04 05:45:28 20° 102° (ESE) 05:50:53 435.175 FM
ISS 30 Jul 05:40:23 05:43:12 25° 209° (SSW) 05:46:00 145.800 FM
Uosat F 30 Jul 05:41:09 05:46:04 50° 100° (E) 05:50:55 435.120 FM
PCSat 30 Jul 05:43:36 05:47:33 20° 355° (N) 05:51:31 145.825 MHz
Oscar 16 30 Jul 05:45:33 05:47:47 13° 314° (NW) 05:50:01 437.025 USB, Beacon 2401.1428
OPAL 30 Jul 05:51:07 05:54:37 19° 268° (W) 05:58:09 ?
ITAMSAT 1 30 Jul 06:08:25 06:11:30 16° 311° (NW) 06:14:34 435.822 SSB
MaSat-1 30 Jul 06:16:55 06:22:14 69° 52° (NE) 06:27:26 437.345 MHz
Uribyol 2 30 Jul 06:28:28 06:30:17 12° 316° (NW) 06:32:07 436.500 FM
AO-27 30 Jul 06:28:45 06:30:46 12° 316° (NW) 06:32:46 436.795 MHz FM
TMSAT-1 30 Jul 06:31:38 06:35:53 25° 304° (NW) 06:40:06 436.925 FM
STRAND 1 30 Jul 06:35:25 06:40:22 50° 66° (ENE) 06:45:20 ?
Sapphire 30 Jul 06:54:43 06:58:51 21° 12° (NNE) 07:02:58 437.095 MHz 1200 baud AX-25 AFSK
Gurwin Techsat 1B 30 Jul 06:57:47 07:00:38 15° 313° (NW) 07:03:29 435.225 FM
Hamsat 30 Jul 07:14:59 07:19:04 41° 97° (E) 07:23:10 145.90 MHz
JAS-1B 30 Jul 07:15:23 07:22:43 26° 321° (NW) 07:29:32 435.800 - 435.900 CW/SSB
Uosat F 30 Jul 07:20:17 07:24:42 31° 300° (WNW) 07:29:05 435.120 FM
AO-7 30 Jul 07:21:56 07:30:08 62° 300° (WNW) 07:38:15 29.400 - 29.500 MHz
PCSat 30 Jul 07:28:18 07:32:47 25° 21° (NNE) 07:37:16 145.825 MHz
KITSAT 1 30 Jul 07:31:29 07:39:30 70° 124° (SE) 07:47:34 435.175 FM
JAS-2 30 Jul 07:35:04 07:41:03 49° 97° (E) 07:46:21 435.800 - 435.900 CW/SSB, 435.910 FM
MaSat-1 30 Jul 07:54:48 07:59:13 27° 252° (WSW) 08:03:29 437.345 MHz
Saudisat 1A 30 Jul 07:57:56 08:01:32 25° 118° (ESE) 08:05:09 436.775 MHz
STRAND 1 30 Jul 08:15:15 08:19:48 31° 266° (W) 08:24:22 ?
SO-67 30 Jul 08:22:27 08:25:41 34° 97° (E) 08:28:52 435.3500 MHz FM
Sapphire 30 Jul 08:38:28 08:43:39 43° 37° (NE) 08:48:49 437.095 MHz 1200 baud AX-25 AFSK
HO-68 30 Jul 08:40:47 08:41:56 10° 77° (ENE) 08:43:04 435.675 MHz FM
Hamsat 30 Jul 08:51:13 08:54:57 29° 297° (WNW) 08:58:41 145.90 MHz
JAS-1B 30 Jul 09:05:49 09:09:55 14° 347° (NNW) 09:13:56 435.800 - 435.900 CW/SSB
PCSat 30 Jul 09:11:46 09:17:12 65° 45° (NE) 09:22:36 145.825 MHz
AO-7 30 Jul 09:15:20 09:21:29 24° 324° (NW) 09:27:37 29.400 - 29.500 MHz
JAS-2 30 Jul 09:20:23 09:26:03 38° 301° (WNW) 09:31:08 435.800 - 435.900 CW/SSB, 435.910 FM
KITSAT 1 30 Jul 09:27:33 09:35:23 50° 329° (NNW) 09:43:15 435.175 FM
Saudisat 1A 30 Jul 09:36:23 09:40:48 68° 319° (NW) 09:45:14 436.775 MHz
UKube-1 30 Jul 09:37:41 09:39:27 12° 86° (E) 09:41:13 145.840 MHz, 145.915 MHz
SO-67 30 Jul 09:55:47 09:58:39 24° 296° (WNW) 10:01:29 435.3500 MHz FM
Oscar 11 30 Jul 10:20:16 10:23:16 18° 89° (E) 10:26:16 145.825 FM, Beacon 2401.500 USB
Sapphire 30 Jul 10:21:59 10:27:16 53° 239° (WSW) 10:32:32 437.095 MHz 1200 baud AX-25 AFSK
HO-68 30 Jul 10:24:37 10:31:32 49° 100° (E) 10:38:24 435.675 MHz FM
FUNcube-1 30 Jul 10:46:30 10:48:26 13° 86° (E) 10:50:23 145.950 - 145.970 MHz USB
JAS-1B 30 Jul 10:52:16 10:56:31 14° 14° (NNE) 11:00:44 435.800 - 435.900 CW/SSB
PCSat 30 Jul 10:55:37 11:00:20 31° 246° (WSW) 11:05:01 145.825 MHz
JAS-2 30 Jul 11:07:41 11:09:20 11° 326° (NW) 11:10:57 435.800 - 435.900 CW/SSB, 435.910 FM
AO-7 30 Jul 11:08:07 11:11:24 13° 351° (N) 11:14:41 29.400 - 29.500 MHz
UKube-1 30 Jul 11:12:00 11:16:24 82° 105° (ESE) 11:20:45 145.840 MHz, 145.915 MHz
Saudisat 1A 30 Jul 11:17:26 11:21:07 25° 341° (NNW) 11:24:49 436.775 MHz
KITSAT 1 30 Jul 11:25:27 11:32:42 34° 358° (N) 11:39:57 435.175 FM
Oscar 19 30 Jul 11:45:27 11:46:51 11° 44° (NE) 11:48:15 437.125 CW, 437.150 USB
Oscar 11 30 Jul 11:55:36 11:59:56 67° 288° (WNW) 12:04:14 145.825 FM, Beacon 2401.500 USB
Sapphire 30 Jul 12:08:37 12:09:31 10° 259° (W) 12:10:25 437.095 MHz 1200 baud AX-25 AFSK
Oscar 16 30 Jul 12:11:51 12:15:04 17° 50° (NE) 12:18:17 437.025 USB, Beacon 2401.1428
HO-68 30 Jul 12:12:31 12:19:18 48° 301° (WNW) 12:26:04 435.675 MHz FM
FUNcube-1 30 Jul 12:21:18 12:25:29 87° 286° (WNW) 12:29:42 145.950 - 145.970 MHz USB
JAS-1B 30 Jul 12:36:22 12:43:45 26° 39° (NE) 12:51:15 435.800 - 435.900 CW/SSB
ITAMSAT 1 30 Jul 12:36:36 12:39:23 15° 47° (NE) 12:42:09 435.822 SSB
RS-15 30 Jul 12:38:54 12:46:33 22° 100° (E) 12:54:07 29.354 - 29.394 USB, Beacon 29.352 USB
UKube-1 30 Jul 12:49:12 12:52:06 18° 305° (NW) 12:54:58 145.840 MHz, 145.915 MHz
Uribyol 2 30 Jul 12:54:31 12:58:09 20° 52° (NE) 13:01:46 436.500 FM
AO-27 30 Jul 12:55:08 12:58:45 19° 52° (NE) 13:02:23 436.795 MHz FM
AO-7 30 Jul 12:56:39 13:00:52 15° 19° (NNE) 13:05:05 29.400 - 29.500 MHz
Saudisat 1A 30 Jul 12:58:43 13:02:03 20° 6° (N) 13:05:22 436.775 MHz
SO-50 30 Jul 12:59:20 13:03:13 29° 120° (ESE) 13:07:11 436.795 FM
Oscar 19 30 Jul 13:20:10 13:25:02 45° 65° (ENE) 13:29:55 437.125 CW, 437.150 USB
KITSAT 1 30 Jul 13:22:25 13:30:09 45° 26° (NNE) 13:37:50 435.175 FM
AO-Echo 30 Jul 13:24:24 13:28:56 29° 59° (ENE) 13:33:27 ?
Gurwin Techsat 1B 30 Jul 13:26:57 13:30:15 17° 50° (NE) 13:33:34 435.225 FM
Oscar 11 30 Jul 13:33:32 13:35:21 12° 308° (NW) 13:37:09 145.825 FM, Beacon 2401.500 USB
Oscar 16 30 Jul 13:48:33 13:53:39 76° 71° (ENE) 13:58:49 437.025 USB, Beacon 2401.1428
FUNcube-1 30 Jul 13:59:02 14:01:19 15° 305° (NW) 14:03:37 145.950 - 145.970 MHz USB
HO-68 30 Jul 14:01:18 14:05:28 17° 324° (NW) 14:09:38 435.675 MHz FM
ITAMSAT 1 30 Jul 14:12:49 14:17:57 62° 68° (ENE) 14:23:06 435.822 SSB
JAS-1B 30 Jul 14:23:17 14:32:29 63° 63° (ENE) 14:42:14 435.800 - 435.900 CW/SSB
Uribyol 2 30 Jul 14:31:47 14:36:59 87° 73° (ENE) 14:42:13 436.500 FM
AO-27 30 Jul 14:32:23 14:37:37 86° 72° (ENE) 14:42:53 436.795 MHz FM
Saudisat 1A 30 Jul 14:38:40 14:42:47 35° 29° (NNE) 14:46:51 436.775 MHz
SO-50 30 Jul 14:39:04 14:43:33 61° 321° (NW) 14:48:09 436.795 FM
TMSAT-1 30 Jul 14:39:10 14:44:02 38° 62° (ENE) 14:48:54 436.925 FM
AO-7 30 Jul 14:44:07 14:51:13 33° 45° (NE) 14:58:19 29.400 - 29.500 MHz
RS-15 30 Jul 14:45:55 14:56:50 70° 125° (SE) 15:07:40 29.354 - 29.394 USB, Beacon 29.352 USB
UOSAT-12 30 Jul 14:51:01 14:55:01 30° 119° (ESE) 14:59:06 437.025 FM, 437.400 FM
Oscar 19 30 Jul 14:59:55 15:04:32 34° 265° (W) 15:09:12 437.125 CW, 437.150 USB
AO-Echo 30 Jul 15:02:10 15:07:26 60° 259° (W) 15:12:42 ?
Gurwin Techsat 1B 30 Jul 15:04:07 15:09:24 72° 70° (ENE) 15:14:44 435.225 FM
KITSAT 1 30 Jul 15:18:10 15:26:18 82° 232° (SW) 15:34:22 435.175 FM
Uosat F 30 Jul 15:23:19 15:27:27 26° 57° (ENE) 15:31:35 435.120 FM
Oscar 16 30 Jul 15:29:53 15:33:37 20° 271° (W) 15:37:22 437.025 USB, Beacon 2401.1428
ITAMSAT 1 30 Jul 15:53:34 15:57:51 25° 268° (W) 16:02:10 435.822 SSB
JAS-2 30 Jul 16:11:16 16:15:30 17° 43° (NE) 16:19:30 435.800 - 435.900 CW/SSB, 435.910 FM
Uribyol 2 30 Jul 16:13:46 16:17:11 18° 273° (W) 16:20:38 436.500 FM
AO-27 30 Jul 16:14:19 16:17:50 18° 272° (W) 16:21:23 436.795 MHz FM
JAS-1B 30 Jul 16:14:21 16:23:16 49° 266° (W) 16:32:50 435.800 - 435.900 CW/SSB
OPAL 30 Jul 16:15:46 16:17:25 11° 86° (E) 16:19:04 ?
Saudisat 1A 30 Jul 16:18:16 16:22:38 61° 231° (SW) 16:26:58 436.775 MHz
TMSAT-1 30 Jul 16:18:54 16:23:56 43° 262° (W) 16:29:01 436.925 FM
SO-50 30 Jul 16:21:10 16:24:57 25° 344° (NNW) 16:28:50 436.795 FM
UOSAT-12 30 Jul 16:30:18 16:34:56 63° 320° (NW) 16:39:39 437.025 FM, 437.400 FM
AO-7 30 Jul 16:34:49 16:43:13 90° 248° (WSW) 16:51:39 29.400 - 29.500 MHz
Hamsat 30 Jul 16:42:00 16:43:24 12° 52° (NE) 16:44:49 145.90 MHz
Gurwin Techsat 1B 30 Jul 16:45:50 16:49:56 22° 271° (W) 16:54:03 435.225 FM
AO-Echo 30 Jul 16:45:54 16:47:19 11° 279° (W) 16:48:43 ?
RS-15 30 Jul 16:58:54 17:09:42 59° 333° (NNW) 17:20:34 29.354 - 29.394 USB, Beacon 29.352 USB
Uosat F 30 Jul 17:00:53 17:05:54 64° 257° (WSW) 17:10:56 435.120 FM
KITSAT 1 30 Jul 17:14:27 17:20:38 25° 255° (WSW) 17:26:48 435.175 FM
JAS-2 30 Jul 17:51:57 17:59:14 51° 64° (ENE) 18:05:54 435.800 - 435.900 CW/SSB, 435.910 FM
OPAL 30 Jul 17:52:14 17:57:17 65° 106° (ESE) 18:02:23 ?
Saudisat 1A 30 Jul 18:00:10 18:01:21 11° 250° (WSW) 18:02:32 436.775 MHz
SO-50 30 Jul 18:03:15 18:06:55 22° 9° (N) 18:10:38 436.795 FM
UOSAT-12 30 Jul 18:11:58 18:15:55 26° 343° (NNW) 18:19:54 437.025 FM, 437.400 FM
JAS-1B 30 Jul 18:12:11 18:16:30 14° 291° (WNW) 18:20:55 435.800 - 435.900 CW/SSB
Hamsat 30 Jul 18:14:26 18:18:35 64° 72° (ENE) 18:22:47 145.90 MHz
AO-7 30 Jul 18:30:21 18:37:07 27° 270° (W) 18:43:56 29.400 - 29.500 MHz
Uosat F 30 Jul 18:44:20 18:45:44 11° 277° (W) 18:47:07 435.120 FM
SO-67 30 Jul 19:01:44 19:04:52 32° 67° (ENE) 19:08:02 435.3500 MHz FM
RS-15 30 Jul 19:13:55 19:24:24 47° 6° (N) 19:35:03 29.354 - 29.394 USB, Beacon 29.352 USB
HO-68 30 Jul 19:14:46 19:19:59 23° 43° (NE) 19:25:12 435.675 MHz FM
OPAL 30 Jul 19:31:40 19:35:51 27° 305° (NW) 19:40:04 ?
JAS-2 30 Jul 19:37:00 19:44:21 47° 263° (W) 19:51:08 435.800 - 435.900 CW/SSB, 435.910 FM
SO-50 30 Jul 19:44:05 19:48:34 42° 32° (NNE) 19:53:07 436.795 FM
Hamsat 30 Jul 19:52:09 19:55:00 18° 271° (W) 19:57:53 145.90 MHz
UOSAT-12 30 Jul 19:53:43 19:57:28 22° 8° (N) 20:01:13 437.025 FM, 437.400 FM
STRAND 1 30 Jul 20:18:26 20:23:30 57° 101° (ESE) 20:28:31 ?
SO-67 30 Jul 20:35:09 20:38:01 24° 266° (W) 20:40:55 435.3500 MHz FM
UKube-1 30 Jul 20:38:30 20:42:06 26° 60° (ENE) 20:45:42 145.840 MHz, 145.915 MHz
HO-68 30 Jul 20:59:30 21:06:37 69° 65° (ENE) 21:13:44 435.675 MHz FM
Oscar 11 30 Jul 21:21:14 21:25:02 31° 63° (ENE) 21:28:52 145.825 FM, Beacon 2401.500 USB
SO-50 30 Jul 21:24:42 21:29:18 51° 233° (SW) 21:33:57 436.795 FM
RS-15 30 Jul 21:27:38 21:38:39 73° 38° (NE) 21:49:56 29.354 - 29.394 USB, Beacon 29.352 USB
JAS-2 30 Jul 21:29:19 21:31:02 11° 284° (WNW) 21:32:44 435.800 - 435.900 CW/SSB, 435.910 FM
UOSAT-12 30 Jul 21:34:13 21:38:45 41° 31° (NNE) 21:43:14 437.025 FM, 437.400 FM
FUNcube-1 30 Jul 21:48:38 21:52:05 24° 61° (ENE) 21:55:29 145.950 - 145.970 MHz USB
MaSat-1 30 Jul 21:51:07 21:55:19 46° 115° (ESE) 22:00:05 437.345 MHz
STRAND 1 30 Jul 21:58:05 22:02:27 29° 302° (WNW) 22:06:47 ?
UKube-1 30 Jul 22:13:49 22:18:05 51° 259° (W) 22:22:22 145.840 MHz, 145.915 MHz
HO-68 30 Jul 22:48:35 22:54:53 32° 267° (W) 23:01:13 435.675 MHz FM
Oscar 11 30 Jul 22:57:09 23:01:11 38° 263° (W) 23:05:14 145.825 FM, Beacon 2401.500 USB
UOSAT-12 30 Jul 23:14:27 23:19:05 54° 233° (SW) 23:23:40 437.025 FM, 437.400 FM
FUNcube-1 30 Jul 23:24:08 23:28:17 49° 260° (W) 23:32:23 145.950 - 145.970 MHz USB
MaSat-1 30 Jul 23:28:28 23:32:47 39° 318° (NW) 23:37:35 437.345 MHz
RS-15 30 Jul 23:40:19 23:50:39 49° 244° (WSW) 00:01:18 29.354 - 29.394 USB, Beacon 29.352 USB
PCSat 31 Jul 00:03:02 00:05:35 14° 103° (ESE) 00:08:07 145.825 MHz
ISS 31 Jul 00:03:05 00:05:20 17° 145° (SE) 00:07:35 145.800 FM
UOSAT-12 31 Jul 00:57:51 00:58:14 10° 253° (WSW) 00:58:38 437.025 FM, 437.400 FM
MaSat-1 31 Jul 01:08:22 01:11:32 17° 342° (NNW) 01:14:51 437.345 MHz
Sapphire 31 Jul 01:10:01 01:14:57 38° 116° (ESE) 01:19:56 437.095 MHz 1200 baud AX-25 AFSK
ISS 31 Jul 01:38:17 01:41:31 47° 164° (SSE) 01:44:46 145.800 FM
PCSat 31 Jul 01:42:39 01:48:00 65° 124° (SE) 01:53:24 145.825 MHz
Oscar 16 31 Jul 01:54:43 01:58:04 17° 87° (E) 02:01:23 437.025 USB, Beacon 2401.1428
RS-15 31 Jul 01:56:08 02:00:00 12° 269° (W) 02:03:56 29.354 - 29.394 USB, Beacon 29.352 USB
OPAL 31 Jul 02:01:08 02:02:19 11° 40° (NE) 02:03:30 ?
JAS-1B 31 Jul 02:04:21 02:09:20 15° 71° (ENE) 02:13:59 435.800 - 435.900 CW/SSB
ITAMSAT 1 31 Jul 02:20:49 02:23:18 13° 84° (E) 02:25:45 435.822 SSB
